User: anonymous   Login
Location: Unspecified
(47.8330°N, 0.0000°E)
Time: 22:16:06
(UTC+00:00)
Language:

CAS-4B - Orbit

View from above orbital plane
View from above orbital plane
View from above satellite
View from above satellite

Ground track
Ground track

The orbit data is extracted from the following two-line orbital elements,

1 42759U 17034B   19286.39398038  .00000211  00000-0  26422-4 0  9995
2 42759  43.0200 309.7935 0012650 268.3646 223.5888 15.09652413128477
Epoch (UTC): 13 October 2019 09:27:19
Eccentricity: 0.0012650
inclination: 43.0200°
perigee height: 528 km
apogee height: 546 km
right ascension of ascending node: 309.7935°
argument of perigee: 268.3646°
revolutions per day: 15.09652413
mean anomaly at epoch: 223.5888°
orbit number at epoch: 12847

The dashed part of the orbit path shows where the satellite is in the earth's shadow,  

DLR